{"data":{"norad_id":61871,"intl_designator":"2024-203C","name":"2024-203C","alt_names":[],"object_type":"PAYLOAD","status":"ACTIVE","operator":null,"country":"PRC","launch_date":"2024-11-09","launch_site_code":"JSC","launch_vehicle":null,"mission":null,"orbit_class":"UNKNOWN","rcs_meters":null,"size_class":null,"mass_kg":null,"dimensions":null,"purposes":[],"wikipedia_slug":null,"has_3d_model":false,"image_url":null,"decayed_at":null,"tle_current":{"epoch":"2026-05-25T05:02:29.399136Z","epoch_age_seconds":66971,"freshness":"FRESH","line1":"1 61871U 24203C   26145.21006249  .00011333  00000+0  45645-3 0  9993","line2":"2 61871  97.4248 214.6275 0013301  72.2390 288.0299 15.24943146 85366","mean_motion":15.24943146,"eccentricity":0.0013301,"inclination_deg":97.4248,"raan_deg":214.6275,"arg_perigee_deg":72.239,"mean_anomaly_deg":288.0299,"bstar":0.00045645,"rev_number":8536,"period_min":94.429749973118,"perigee_km":481.81957987457,"apogee_km":500.09274150063,"semimajor_km":6869.0931606876,"source":"CELESTRAK","updated_at":"2026-05-25T13:38:02.594937Z"}}}